Printer-friendly version

IAU Minor Planet Center

Minor Planet Center

MPEC 2004-Y12 : COMET P/2004 V1 (SKIFF)

The following Minor Planet Electronic Circular may be linked-to from your own Web pages, but must not otherwise be redistributed electronically.


Read MPEC 2004-Y11 Read MPEC 2004-Y13


M.P.E.C. 2004-Y12                                Issued 2004 Dec. 18, 16:27 UT

     The Minor Planet Electronic Circulars contain information on unusual
         minor planets and routine data on comets.  They are published
   on behalf of Commission 20 of the International Astronomical Union by the
          Minor Planet Center, Smithsonian Astrophysical Observatory,
                          Cambridge, MA 02138, U.S.A.

                  Supported in part by the Brinson Foundation
             Prepared using the Tamkin Foundation Computer Network

                              MPC@CFA.HARVARD.EDU
          URL http://cfa-www.harvard.edu/iau/mpc.html  ISSN 1523-6714

                            COMET P/2004 V1 (SKIFF)

Observations:
    PK04V010  C2004 12 11.75937 22 54 35.06 +01 44 59.0          19.1 T EY012561
    PK04V010  C2004 12 11.76719 22 54 36.83 +01 45 03.6          19.0 T EY012561
    PK04V010  C2004 12 11.77488 22 54 37.96 +01 45 05.0          18.9 T EY012561
    PK04V010  C2004 12 12.07798 22 55 36.99 +01 47 23.8          18.4 T EY012704
    PK04V010  C2004 12 12.09070 22 55 39.44 +01 47 29.7          18.5 T EY012704
    PK04V010  C2004 12 12.10385 22 55 42.02 +01 47 36.1          18.7 T EY012704
    PK04V010  C2004 12 12.11700 22 55 44.54 +01 47 42.1          18.6 T EY012704
    PK04V010  C2004 12 12.12971 22 55 46.94 +01 47 47.0          18.5 T EY012704
    PK04V010  C2004 12 12.77728 22 57 52.71 +01 52 39.8          18.0 N EY012104
    PK04V010  C2004 12 12.78132 22 57 53.47 +01 52 41.5          17.9 N EY012104
    PK04V010  C2004 12 12.78579 22 57 54.36 +01 52 43.8          18.1 N EY012104
    PK04V010   2004 12 13.41563 22 59 56.89 +01 57 35.3          17.5 T EY012372
    PK04V010  C2004 12 14.72109 23 04 12.16 +02 07 46.3          17.4 T EY012215
    PK04V010  C2004 12 14.72147 23 04 12.28 +02 07 46.2          17.3 T EY012215
    PK04V010  C2004 12 14.72184 23 04 12.29 +02 07 46.3          17.5 T EY012215

Observer details:
104 San Marcello Pistoiese.  Observers L. Tesi, A. Boattini, M. Tombelli,
    G. Fagioli.  Measurers G. Forti, L. Tesi, A. Boattini, M. Tombelli.
    0.60-m f/4 reflector + CCD.
215 Buchloe.  Observer W. Hasubick.  0.44-m f/4.6 reflector + CCD.
372 Geisei.  Observer T. Seki.  0.60-m f/3.5 reflector.
561 Piszkesteto.  Observer J. Kelemen.  0.6-m Schmidt + CCD.
704 Lincoln Laboratory ETS, New Mexico.  Observers M. Blythe, F. Shelly,
    M. Bezpalko, R. Huber, L. Manguso, D. Torres, R. Kracke, M. McCleary,
    H. Stange, A. Milner.  Measurers J. Stuart, R. Sayer, J. Evans, J. Kommers.
    1.0-m f/2.15 reflector + CCD.

Orbital elements:
    P/2004 V1 (Skiff)
Epoch 2004 Dec. 21.0 TT = JDT 2453360.5
T 2004 Dec. 8.86804 TT                                  MPC
q   1.4183525            (2000.0)            P               Q
n   0.09892068     Peri.  144.76408     +0.88076565     -0.43966589
a   4.6303235      Node   242.24240     +0.37591947     +0.87505618
e   0.6936818      Incl.   11.46619     +0.28798683     +0.20241191
P   9.96
Residuals in seconds of arc
041007 704  0.7-  0.6-    041106 704  0.0   0.3+    041202 360  0.5-  0.1-
041007 704  0.4+  0.8-    041107 673  0.4+  0.3-    041202 360  0.9-  0.3-
041007 704  0.9-  0.2+    041107 673 (4.3-  0.3-)   041206 D83  1.0+  0.0
041007 704  0.7+  0.1-    041107 673  0.5-  0.5-    041206 D83  0.5+  1.0-
041018 704  0.2-  0.2-    041107 673  1.2-  0.5-    041206 D83  0.7+  0.4-
041018 704  0.8+  1.0-    041107 673  1.2-  0.3-    041206 D83  1.1-  1.5-
041018 704  0.8-  0.5+    041107 673  1.4-  0.3-    041207 246  0.6-  0.1-
041018 704  0.1-  0.1+    041107 360  0.5-  0.4-    041207 246  0.4-  0.2-
041018 704  0.3-  0.6+    041107 360  0.7-  0.3-    041207 246  0.3-  0.1-
041104 699  0.2+  0.2+    041107 360  0.5-  0.6-    041207 246  0.5-  0.1-
041104 699  0.1+  0.5+    041108 I77 (8.4+  0.2-)   041207 246  0.2-  0.5-
041104 699  1.5+  0.7+    041108 I77 (0.2-  2.1-)   041207 246  0.4-  0.0
041104 699  1.3+  0.5+    041109 850 (3.0+  0.3-)   041208 360  0.7-  0.5-
041104 H06  0.9-  0.2+    041109 850  0.2-  0.2-    041208 360  0.4-  0.4-
041104 H06 (2.7+  0.6+)   041109 850  0.7+  0.3+    041208 360  0.4-  0.5-
041104 448  0.1+  0.2+    041109 850  0.9+  0.7+    041209 704  1.1+  1.2+
041104 448  0.3+  0.1+    041112 704  0.2-  0.5+    041209 704  0.7+  1.3+
041104 H06 (2.5+  0.1+)   041112 704  0.4+  0.8+    041209 704  1.1+  0.9+
041104 448  0.5+  0.4-    041112 704  0.2+  0.2-    041209 704 (4.8+  1.3+)
041104 A50  1.7+  1.3+    041112 704  0.5+  0.2-    041209 704  1.6+  0.8+
041104 A50  1.4+  1.0+    041115 415  0.9-  0.5-    041211 561  1.7-  0.1-
041104 A50  1.1+  1.0+    041115 415  0.5-  0.5-    041211 561 (2.4+  1.1+)
041104 A50  1.4+  1.4+    041115 415  1.4+  0.4-    041211 561 (2.8-  1.0-)
041104 A50 (2.6+  1.3+)   041115 118  0.2+  1.2-    041212 704  0.5+  0.3+
041105 734  1.5+  0.2-    041115 118  0.9-  0.2+    041212 704  0.8+  0.5+
041105 734  0.4-  0.2-    041117 J97  1.4+  0.0     041212 704  1.7+  1.0+
041105 734 (2.2+  0.7-)   041118 170  0.4+  0.8-    041212 704  1.7+  1.1+
041105 734  0.7-  0.1-    041118 170  0.1+  0.5-    041212 704  1.2+  0.3+
041105 104  1.1-  0.1-    041118 170  0.1-  0.6-    041212 104  0.0   0.2+
041105 104  1.4-  0.5-    041118 170  0.1-  0.3-    041212 104  0.3-  0.1+
041105 104  0.6-  0.1-    041130 673  0.2-  0.1-    041212 104  0.2+  0.3+
041105 213  0.1-  0.4+    041130 673  1.1-  0.3-    041213 372  1.8-  0.6+
041105 213  0.3+  0.3+    041130 673  1.1-  0.2-    041214 215  0.4-  0.4-
041105 213  0.3+  0.4+    041130 673  1.3-  0.1-    041214 215  0.3+  0.7-
041106 704  0.0   0.2+    041130 360  0.4-  0.3-    041214 215  0.6-  0.7-
041106 704  0.3-  0.5+    041130 360  0.7-  0.3-

Brian G. Marsden             (C) Copyright 2004 MPC           M.P.E.C. 2004-Y12

Read MPEC 2004-Y11 Read MPEC 2004-Y13


Our Web policy. Index to the CBAT/MPC/ICQ pages.


Valid HTML 4.01!